RH
27 30 31 32 33 34 32 32 32 32 29 30 32 34 34 31 27 17 19 23 19 10 8 11 17 23 25 24 23 18 13 12 13 12 13 15 14 15 16 14 16 18 20 41 60
32 32 34 35 34 33 32 34 33 30 29 29 30 33 33 31 27 19 21 24 23 14 9 13 22 22 18 22 22 16 15 13 12 11 12 14 16 14 14 12 12 13 20 41 50
39 40 40 40 36 35 36 34 30 31 34 35 33 32 33 29 33 28 23 24 26 18 10 10 13 21 18 23 20 18 16 13 15 20 21 16 16 14 15 14 12 10 13 29 48
44 44 42 38 37 38 34 30 32 36 36 35 35 34 33 26 32 24 25 22 21 16 11 13 23 17 17 18 21 18 18 19 22 26 23 18 19 16 15 15 16 18 20 24 42
47 44 41 40 40 35 30 33 37 36 35 35 35 36 33 34 33 28 21 15 14 11 13 21 19 18 17 16 18 19 20 22 24 24 22 22 21 19 18 17 17 20 22 22 26
47 43 42 42 37 34 33 38 38 36 34 35 36 35 33 34 31 17 12 12 11 12 15 25 27 23 19 19 20 23 22 20 21 23 24 24 20 25 18 21 21 20 19 22 24
44 45 45 41 36 36 42 43 39 36 36 36 35 37 30 32 19 12 12 11 10 11 24 14 15 26 22 22 24 24 22 20 20 21 23 26 25 24 18 17 16 17 18 21 24
47 48 44 39 36 40 46 44 40 38 38 36 36 36 37 24 15 18 12 11 14 15 16 19 22 30 28 28 24 22 23 27 23 22 24 22 24 16 17 18 18 18 18 18 21
52 47 42 39 36 41 46 42 40 40 41 38 35 39 37 18 22 25 20 17 20 23 24 23 28 30 30 28 34 25 30 27 24 23 23 23 25 17 18 21 20 18 18 20 22
53 46 42 41 39 42 47 43 40 41 43 39 39 34 25 27 32 34 27 26 24 23 30 35 30 25 24 26 40 31 28 25 27 23 26 27 25 18 18 20 19 18 20 23 26
54 47 42 42 40 45 49 43 49 58 50 45 56 40 25 20 30 34 32 29 28 30 29 33 33 32 26 26 26 28 30 30 25 24 31 27 27 22 19 21 19 18 18 21 28
54 48 44 45 43 50 56 55 60 60 61 54 52 38 21 26 35 36 34 37 32 30 31 35 33 27 27 27 29 30 32 31 27 27 32 30 31 24 21 20 21 22 22 24 29
55 49 48 51 46 57 64 64 61 64 64 58 58 32 27 31 37 42 36 34 32 33 34 36 32 30 30 30 33 31 32 30 34 32 30 33 29 28 22 21 21 22 25 26 32
56 57 53 56 56 71 73 68 60 55 68 77 52 42 30 30 38 39 39 38 36 34 35 33 31 29 31 35 32 43 30 33 40 44 51 32 38 22 20 20 19 20 23 28 34
59 64 70 62 70 76 72 72 60 51 97 64 44 40 37 41 45 50 45 41 34 35 37 42 35 36 40 36 30 38 36 39 42 48 54 42 52 22 24 23 19 21 24 30 36
80 76 73 75 76 78 74 74 59 71 98 66 41 41 36 38 42 47 48 44 42 39 38 36 40 36 34 35 31 35 37 38 50 55 83 36 33 22 21 19 19 22 23 32 40
78 85 93 84 99 88 85 75 80 95 47 45 46 38 34 39 42 42 44 46 42 62 52 42 41 38 36 39 38 38 38 76 87 94 46 34 37 23 22 22 22 24 25 33 42
68 83 83 91 95 98 93 76 99 53 42 42 40 40 41 36 40 45 45 44 37 39 40 58 88 45 37 36 34 38 36 58 78 44 33 35 42 26 24 25 25 30 31 36 43
92 86 96 82 98 100 98 99 73 57 41 46 46 46 43 42 49 47 45 40 32 37 47 48 50 41 38 35 33 42 48 36 47 36 47 30 24 24 26 27 28 27 30 33 44
99 100 100 77 98 100 99 91 79 54 43 42 53 41 46 42 54 49 42 34 39 36 34 34 45 41 45 41 43 43 33 51 47 71 54 33 29 34 30 28 27 28 29 32 45
99 100 100 99 89 100 97 88 74 65 52 52 50 48 42 42 48 43 42 37 36 43 39 37 39 52 49 52 44 49 48 46 46 47 73 47 32 24 26 25 28 26 25 31 39
95 100 100 100 99 99 95 83 68 67 64 53 48 47 48 44 47 49 44 36 37 44 51 39 41 54 51 36 35 36 37 38 57 56 52 53 49 22 23 25 26 24 26 31 39
99 98 98 100 99 96 78 75 90 88 72 67 63 52 46 52 62 48 45 35 40 43 42 40 50 66 56 54 48 51 43 41 37 42 55 74 46 25 26 28 28 30 31 33 34
99 100 97 100 100 99 98 96 99 98 96 96 94 82 68 66 52 55 53 59 48 42 47 41 51 55 60 47 45 58 52 45 46 62 58 52 45 33 28 27 24 30 33 34 37
99 99 99 100 100 100 98 100 100 99 96 97 94 93 98 96 91 79 86 90 72 76 76 82 100 91 69 60 60 73 60 50 57 52 68 53 46 36 28 29 30 28 31 40 44
99 97 99 99 100 100 100 99 100 98 99 100 100 100 100 100 100 100 99 98 98 96 91 96 100 99 96 76 71 76 62 60 65 74 74 55 47 31 37 34 28 34 42 45 48
100 99 99 99 98 100 100 99 100 97 98 98 96 100 100 96 97 98 99 100 97 98 100 100 100 98 83 54 68 84 54 46 45 43 54 62 46 31 28 24 35 44 43 49 51
Wind_Speed
8 9 11 12 13 14 16 17 18 19 20 18 17 15 14 9 7 9 8 11 11 9 7 6 7 5 4 2 3 2 4 1 2 1 4 3 4 2 3 7 5 4 5 2 4
7 8 9 11 12 14 16 17 18 19 19 18 16 14 13 9 5 6 10 11 10 9 6 5 4 5 2 3 3 3 3 3 4 5 3 1 5 5 5 7 8 9 9 6 6
8 9 11 13 14 15 16 18 19 20 19 17 15 13 12 7 3 6 11 9 10 8 5 3 3 2 1 2 4 3 5 4 5 4 4 5 7 6 8 8 5 6 3 7 8
6 8 9 12 14 16 17 18 19 20 20 18 14 11 9 5 1 8 11 10 8 6 4 3 2 1 1 2 5 1 5 4 2 3 5 6 8 9 12 14 5 6 6 7 10
6 8 9 11 12 13 15 17 18 20 19 17 13 11 5 4 2 8 10 8 6 4 3 3 2 1 2 3 3 5 3 1 3 6 7 10 12 11 16 12 9 8 10 13 12
8 8 9 10 11 13 14 15 17 18 16 14 11 10 3 1 4 9 7 6 5 6 6 4 3 4 5 2 2 2 3 5 2 2 3 6 10 3 4 2 6 8 8 8 11
9 10 11 12 14 15 16 15 16 14 12 11 10 5 5 2 5 7 5 6 6 6 5 5 5 2 0 3 1 1 3 4 0 4 1 9 7 7 4 3 6 5 4 4 7
9 10 12 14 15 16 18 18 17 16 10 12 4 3 3 3 4 6 4 6 7 5 5 4 4 3 1 1 2 2 3 5 4 8 4 6 6 3 1 8 13 15 17 16 13
10 10 12 13 15 16 16 17 18 16 11 6 2 3 1 1 3 4 4 4 5 5 7 4 3 1 1 2 0 1 5 6 4 3 7 3 12 3 8 10 17 13 11 12 11
12 12 13 14 13 15 15 17 13 10 10 4 2 3 1 2 3 4 4 4 3 1 1 0 3 2 0 2 1 4 5 4 7 4 7 11 19 14 10 8 6 6 6 6 5
13 13 14 15 15 16 16 13 9 2 15 4 9 5 3 4 4 2 4 3 2 1 2 2 3 2 3 4 3 4 6 9 10 5 6 9 17 22 16 7 5 3 5 5 6
14 14 14 14 14 14 13 8 8 9 9 12 6 6 5 5 3 2 4 2 2 1 1 3 1 5 3 1 3 5 9 9 6 0 5 12 20 20 12 7 3 4 8 9 8
16 15 14 14 14 12 10 11 13 13 7 4 5 3 3 4 4 3 4 4 2 2 2 2 4 6 3 4 6 9 9 7 6 10 12 10 11 6 6 7 6 2 6 9 11
17 16 16 13 11 7 8 11 13 14 4 4 5 4 3 1 5 4 3 3 4 5 2 2 6 6 5 6 4 8 3 2 6 7 5 4 6 5 8 7 7 2 2 6 10
19 17 16 12 10 8 10 10 11 7 5 2 1 3 4 6 2 1 3 3 4 5 4 2 7 6 7 4 5 2 1 4 6 6 7 6 4 2 2 6 7 5 2 4 8
20 19 18 17 16 12 9 7 7 2 8 1 2 2 4 6 6 3 1 2 1 2 3 1 1 3 1 3 2 2 4 5 1 2 4 5 4 5 4 4 9 4 2 5 8
25 19 19 18 8 8 4 3 3 6 3 3 2 3 6 5 5 8 8 8 6 3 6 4 6 3 4 4 4 4 4 2 3 3 3 5 5 9 4 3 3 2 1 3 6
26 23 22 24 19 12 6 3 10 7 13 3 1 2 7 7 7 7 5 9 13 9 5 4 6 9 10 5 1 9 3 3 5 4 6 8 8 3 3 4 6 5 4 1 3
26 24 24 23 24 18 11 10 9 13 12 6 3 5 8 9 3 8 11 13 7 17 10 6 5 4 6 3 3 5 6 1 4 4 5 7 8 8 9 7 8 6 5 2 2
18 20 28 22 24 26 9 24 11 20 6 9 12 11 10 11 8 9 10 5 6 13 7 4 6 6 5 2 1 2 3 2 2 4 7 7 13 8 7 5 7 11 9 5 5
9 7 9 25 26 18 14 10 16 25 25 18 23 21 16 14 14 11 10 8 11 9 9 3 7 5 6 11 14 6 5 4 3 4 4 8 5 5 5 4 8 11 12 7 8
8 3 5 25 14 7 17 7 22 14 34 22 19 21 23 21 19 17 22 17 18 16 11 11 5 9 12 4 8 14 14 17 7 9 7 9 11 8 4 4 7 9 10 9 11
4 5 4 21 5 11 13 17 5 4 12 14 23 20 23 24 21 23 25 23 17 17 14 12 8 7 6 2 3 8 14 14 18 14 21 7 6 7 7 5 9 12 13 10 10
2 2 6 7 4 4 6 3 5 2 1 4 4 6 6 19 23 14 15 2 11 19 5 18 12 16 16 3 4 6 15 19 20 15 17 23 27 21 20 17 18 14 18 17 16
5 3 3 2 2 3 1 3 4 2 6 6 2 2 3 6 6 16 1 3 2 5 3 2 6 9 16 16 11 10 12 15 19 20 17 20 22 20 21 21 24 28 20 14 17
5 3 3 3 3 2 4 3 4 3 2 1 2 2 2 3 1 1 2 2 2 2 6 4 2 3 4 10 11 18 20 19 20 21 21 25 30 22 31 31 26 15 18 17 10
9 13 6 4 2 3 3 2 2 3 6 7 4 3 4 6 8 5 6 8 6 3 5 4 3 3 6 6 10 14 19 23 22 21 20 22 25 21 18 15 12 13 12 12 10
Wind_Direction
14 11 9 8 6 2 359 358 357 357 356 354 354 356 356 2 10 27 11 3 11 5 1 10 10 345 6 359 22 314 243 146 93 191 89 150 252 185 291 276 243 243 268 125 173
9 5 3 1 360 358 357 356 354 353 352 351 351 354 357 1 53 25 3 356 354 1 10 34 21 14 347 350 345 306 294 56 23 28 12 340 288 323 272 254 246 243 240 230 225
2 359 358 357 357 357 356 355 351 348 347 347 347 350 357 7 97 353 347 342 343 349 6 36 62 44 29 350 352 11 20 54 49 9 328 299 282 269 274 269 267 262 239 224 216
349 351 351 352 355 355 352 351 349 348 344 343 344 350 2 39 323 331 343 340 342 347 31 41 308 245 6 31 9 237 50 22 11 354 309 294 314 278 261 266 278 273 255 239 227
333 340 348 351 350 349 344 346 346 345 343 343 344 349 9 80 40 349 343 358 14 36 46 79 36 42 56 49 28 36 31 339 305 302 297 296 282 281 282 283 271 256 254 241 236
325 334 339 340 340 340 338 343 344 344 344 346 347 346 22 191 354 359 10 25 43 68 46 74 81 97 92 80 39 20 320 309 280 313 296 296 293 297 186 273 268 273 264 250 239
321 328 331 335 337 338 336 338 337 339 343 346 338 357 74 106 17 26 49 67 67 73 66 82 99 7 72 151 121 217 237 189 202 331 312 314 245 230 253 290 281 267 249 260 258
311 321 329 334 338 341 340 339 335 333 335 335 14 90 124 44 48 36 66 80 84 73 74 78 91 97 53 139 210 267 241 317 81 347 118 334 310 171 257 311 299 289 277 275 267
301 313 323 330 335 339 340 339 329 327 341 337 350 140 96 103 71 57 80 98 98 80 48 42 68 93 194 293 182 197 322 333 317 38 327 316 305 22 274 309 303 307 295 281 268
297 309 318 324 332 336 341 339 335 326 345 316 344 139 225 233 141 70 100 91 103 119 45 239 193 194 33 319 302 305 305 305 299 9 325 299 282 285 309 328 293 310 331 341 307
293 304 313 321 331 338 345 1 357 344 328 268 304 295 281 204 170 103 144 129 120 218 255 33 234 201 84 31 20 306 289 289 297 34 308 277 291 288 303 281 247 321 333 349 348
287 298 306 315 326 337 349 32 10 315 308 290 260 258 247 215 253 241 135 160 208 216 319 217 310 83 83 34 299 284 295 301 299 25 293 294 289 286 289 215 218 316 321 329 336
281 289 298 310 321 333 359 4 346 340 270 230 219 208 206 209 271 232 150 134 113 167 37 279 110 148 203 233 282 279 264 305 293 317 262 299 265 196 173 200 198 292 322 331 337
278 287 292 306 315 334 333 341 339 340 282 251 197 202 171 185 259 232 161 159 172 187 196 235 152 192 205 248 240 280 78 286 291 319 296 20 291 228 182 203 196 262 323 339 345
271 276 283 287 286 310 308 325 334 342 328 220 185 206 171 152 336 301 344 333 212 162 188 148 183 203 249 269 185 337 16 303 306 283 331 198 251 225 143 224 199 196 358 13 10
264 266 272 279 279 278 287 314 323 253 245 180 141 246 206 189 172 165 280 11 48 237 233 287 100 212 287 136 200 93 269 224 250 228 247 156 228 268 181 224 156 174 104 31 15
259 257 258 259 260 284 293 315 245 228 188 166 235 193 241 203 211 198 183 194 215 170 224 187 207 150 183 215 178 223 257 284 241 209 279 153 233 251 185 145 140 178 180 18 19
260 253 255 252 243 246 253 214 230 218 230 111 97 220 223 191 234 212 225 231 217 233 269 239 283 191 172 226 273 193 261 229 279 275 302 151 240 225 139 191 188 192 200 338 51
259 255 252 243 230 231 201 228 230 216 238 180 136 213 218 218 272 220 231 246 228 202 206 211 233 138 191 157 188 162 212 47 274 231 269 228 214 243 188 218 204 198 197 219 131
242 242 243 253 222 222 227 240 229 230 230 201 228 223 239 214 203 199 207 216 230 209 219 223 261 186 134 166 207 259 124 135 220 260 255 263 265 237 189 197 206 214 203 195 185
258 245 227 228 218 209 231 230 238 233 230 230 237 243 242 248 213 228 249 176 205 197 209 188 232 133 156 200 188 171 198 219 292 242 262 291 272 98 144 196 195 198 196 214 214
258 254 208 194 189 223 230 223 241 236 216 228 240 239 242 248 242 239 245 236 180 166 181 203 232 247 223 205 237 237 220 203 211 214 228 267 269 158 155 162 213 216 212 230 226
226 261 246 195 231 221 230 229 224 230 210 225 232 226 230 237 251 246 240 241 198 180 194 167 221 245 243 195 210 229 219 236 234 250 247 222 235 131 135 199 232 248 257 246 250
214 251 239 226 283 336 316 242 214 98 221 322 321 279 232 244 232 249 245 51 203 207 234 173 228 217 239 266 104 207 219 221 229 232 247 242 263 263 279 277 273 250 240 238 267
215 238 239 228 234 238 287 328 328 286 12 0 356 359 347 228 238 245 243 135 94 163 111 112 240 241 260 273 280 247 254 225 227 239 238 262 261 277 288 294 297 302 296 277 274
214 206 218 276 281 248 184 218 230 228 196 307 281 4 33 282 351 20 270 167 204 174 180 154 250 197 255 239 245 256 250 247 238 240 250 264 270 274 279 282 286 294 289 291 271
234 234 235 213 202 202 216 198 264 219 218 228 242 241 224 243 261 242 254 284 288 268 187 192 190 206 249 246 272 261 246 245 248 238 238 250 260 281 282 283 295 291 272 264 257